SL-19 R/B, 36589

Orbit data source: Space-Track

SL-19 R/B, 36589 is space debris in SSO originally from a launch on Wed, 02 Jun 2010 UTC launched from the Plesetsk Missile And Space Complex (PKMTR). Debris objects in space refer to the collection of defunct objects orbiting the Earth. Examples of debris include non-operational satellites, rocket bodies, and fragments generated from explosions, collisions, or faulty payload assembly.

Loading next visibility...
SL-19 R/B details
Identifier
36589, 2010-023B
Orbit
SSO
Last TLE update7 hours ago
Origin
Flag of CISEurockot (CIS)
ManufacturerKhrunichev
MissionSpacecraft
Bus & MotorBRIZ, S5.92
Mass2,370 kg wet, 2,370 kg dry
Launch date (UTC)
2010-06-02 (15 years ago)
Launch vehicleUnknown
Launch site
Plesetsk Missile And Space Complex (PKMTR)
Object type
Payload
Rocket body
Debris
Shape & HBRHex Cyl + 1 Rod, 4.1 m
Radar Cross Section10.190 m², Large (>1 m²)

Expand to show TLE details & history

TLE from 7 hours ago
0 SL-19 R/B
1 36589U 10023B   24361.31241828 -.00000011  00000-0  46030-4 0  9992
2 36589 100.4595 274.8299 0225125 187.9587 282.6260 13.58499275722606
Epoch: 2024-12-26T07:29Z
Definitive object data (Epoch: 2024-12-26T07:29:52.939Z)
Latitude69.30309°
Longitude-83.84964°
Altitude1,020.125 km
Speed7.364 km/s
True Right ascension08h 15m 39s
True Declination69° 11' 35"
Sunlit
Object was in full shadow at TLE epoch
Visualization TLE readout
Latitude55.21745°
Longitude-97.2857°
Altitude973.331 km
Speed7.408 km/s
Apparent Right ascension04h 26m 22s
Apparent Declination15° 35' 20"
Sunlit
Object is in full shadow
Visualization observer readout
Local Sidereal Time14:00:26
Azimuth320.832° NNW
Elevation-24.932°
Doppler factor1
Orbital elements
Apogee altitude1,205.446 km
Perigee altitude871.513 km
Semi-major axis7,416.617 km
Eccentricity0.0225125
Inclination100.4595°
RAAN274.8299°
Arg. of periapsis187.9587°
True anomaly280.09389°
Mean anomaly282.626°
Eccentric anomaly281.3614°
Mean motion3.39809 °/min
BSTAR0.00004603
Orbital period105.94 mins
Loading maneuver chart data...
Loading historical data...
Loading historical data...
Loading historical data...
Loading historical data...
Loading historical data...
Loading historical data...
Loading historical data...
Other satellites on launch #23 in the year 2010 (2010-06-02 UTC)

SL-19 R/B Visibility forecast

Observer location: undefined°, undefined

Span
Click to sort rows by Start time (UTC) header in descending order
Start Az.
Max El. time (UTC)
Max El. Az.
Max El.
End time (UTC)
End Az.
12 mins2024-12-26 17:40:33.863Z139.085° SSE2024-12-26 17:46:33.863Z73.136° E38.116°2024-12-26 17:52:33.863Z356.623° N
10 mins2024-12-26 19:26:33.863Z211.796° SW2024-12-26 19:31:33.863Z267.693° W26.796°2024-12-26 19:36:33.863Z319.032° NNW
8 mins2024-12-27 06:34:33.863Z46.337° ENE2024-12-27 06:38:33.863Z104.588° ESE26.743°2024-12-27 06:42:33.863Z154.762° SSE
9 mins2024-12-27 08:18:33.863Z353.379° N2024-12-27 08:22:33.863Z297.22° NW31.02°2024-12-27 08:27:33.863Z231.204° WSW
|